ROMMA est une association bénévole à but non lucratif. Votre soutien est indispensable : ADHERER à ROMMA ou FAIRE un DON

Chambon - (38, Isère)

Oisans (2460 m)   Longitude: 06° 10' 42" E   Latitude: 45° 01' 32" N Station partenaire n°803
 

Détail journalier du     <<     >>

Température Humidité Vent Dir Rafale Dir. rafale Neige 1 Neige 2
Heure (°C) (%) (km/h) (km/h) (cm) (cm)
01:00 12.07011SSO38SSO02
02:00 11.97012SSO36SSO02
03:00 12.16711SSO29SSO02
04:00 11.4719SSO27SSO02
05:00 11.1736S21SSO02
06:00 11.4686S20SO02
07:00 12.54814SSO32SSO12
08:00 12.94711SSO27SSO02
09:00 14.44511S35S02
10:00 14.94917S40SSO12
11:00 15.75220SSO54SSO21
12:00 16.74720SSO57SSO11
13:00 17.54518S53SSO21
14:00 17.74418SSO60SSO11
15:00 18.14125SSO70SSO11
16:00 18.14232SSO79SSO10
17:00 17.94532SSO78SSO21
18:00
19:00 13.96427SSO66SSO22
20:00 13.66916SSE53SSO01
21:00 13.46713SSE54S11
22:00 12.2797SE44S11
23:00 10.9906ESE35SE00
minuit 10.3923NNE22ESE12

Graphique du 11-08-2019

 

Serveur OMMA